Fort Yukon, AK

8:50 PM AKDT on April 22, 2018 (GMT -0800)
Fort Yukon

Weather History for PFYU - November, 2013

Change the Weather History Date:

Monday, November 25, 2013

  Actual Average Record
Temperature  
Mean Temperature -8 °F -  
Max Temperature 3 °F 0 °F 24 °F (2010)
Min Temperature -20 °F -10 °F -41 °F (2006)
Degree Days  
Heating Degree Days 72    
Moisture  
Dew Point -10 °F    
Average Humidity 75    
Maximum Humidity 92    
Minimum Humidity 48    
Precipitation  
Precipitation 0.00 in - - ()
Sea Level Pressure  
Sea Level Pressure 30.13 in    
Wind  
Wind Speed 3 mph (NW)    
Max Wind Speed 6 mph    
Max Gust Speed -    
Visibility 9 miles    
Events Snow    
Averages and records for this station are not official NWS values.
T = Trace of Precipitation, MM = Missing Value Source: NWS Daily Summary

Daily Weather History Graph

Daily Weather History Graph

Search for Another Location

Airport or City:

Astronomy

Nov. 25, 2013 Rise Set
Actual Time 10:17 AM AKST 2:38 PM AKST
Civil Twilight 8:55 AM AKST 4:00 PM AKST
Nautical Twilight 7:42 AM AKST 5:12 PM AKST
Astronomical Twilight 6:38 AM AKST 6:16 PM AKST
Moon No Moon Rise 1:31 PM AKST (11/25)
Length of Visible Light 7h 05m
Length of Day
4h 21m
Waning Gibbous, 49% of the Moon is Illuminated
Nov 25
Waning Gibbous
Dec 2
New
Dec 9
First Quarter
Dec 17
Full
Dec 25
Last Quarter

Hourly Weather History & Observations

Time (AKST) Temp. Windchill Dew Point Humidity Pressure Visibility Wind Dir Wind Speed Gust Speed Precip Events Conditions
12:16 AM 1.4 °F -6.2 °F -4.0 °F 78% 30.07 in 2.0 mi WSW 3.5 mph - N/A   Overcast
12:36 AM 1.4 °F -6.2 °F -2.2 °F 85% 30.07 in 2.0 mi West 3.5 mph - N/A   Overcast
12:56 AM 1.4 °F -9.9 °F -4.0 °F 78% 30.07 in 2.0 mi West 5.8 mph - N/A   Overcast
1:16 AM 1.4 °F - -2.2 °F 85% 30.06 in 2.5 mi Calm Calm - N/A   Overcast
1:36 AM 1.4 °F -8.3 °F -2.2 °F 85% 30.06 in 4.0 mi West 4.6 mph - N/A   Overcast
1:56 AM 1.4 °F -9.9 °F -2.2 °F 85% 30.06 in 5.0 mi West 5.8 mph - N/A   Overcast
2:16 AM 1.4 °F -8.3 °F -2.2 °F 85% 30.07 in 8.0 mi WSW 4.6 mph - N/A   Overcast
2:56 AM 3.2 °F -6.2 °F -2.2 °F 78% 30.07 in 10.0 mi WSW 4.6 mph - N/A   Overcast
3:36 AM 3.2 °F -6.2 °F -2.2 °F 78% 30.08 in 10.0 mi WSW 4.6 mph - N/A   Overcast
3:56 AM 1.4 °F -6.2 °F -4.0 °F 78% 30.08 in 10.0 mi WSW 3.5 mph - N/A   Scattered Clouds
4:16 AM 1.4 °F -8.3 °F -5.8 °F 72% 30.08 in 10.0 mi WSW 4.6 mph - N/A   Scattered Clouds
4:36 AM 1.4 °F -9.9 °F -0.4 °F 92% 30.08 in 10.0 mi West 5.8 mph - N/A   Overcast
4:56 AM 1.4 °F -6.2 °F -2.2 °F 85% 30.08 in 10.0 mi WSW 3.5 mph - N/A   Overcast
5:16 AM 1.4 °F -8.3 °F -4.0 °F 78% 30.08 in 10.0 mi SW 4.6 mph - N/A   Overcast
5:36 AM 1.4 °F -8.3 °F -2.2 °F 85% 30.08 in 10.0 mi WSW 4.6 mph - N/A   Overcast
5:56 AM 1.4 °F -8.3 °F -4.0 °F 78% 30.08 in 10.0 mi West 4.6 mph - N/A   Overcast
6:16 AM 1.4 °F -8.3 °F -4.0 °F 78% 30.08 in 10.0 mi WSW 4.6 mph - N/A   Overcast
7:16 AM 3.2 °F -4.2 °F -2.2 °F 78% 30.10 in 10.0 mi West 3.5 mph - N/A   Overcast
7:36 AM 3.2 °F -6.2 °F -2.2 °F 78% 30.11 in 10.0 mi WSW 4.6 mph - N/A   Overcast
7:56 AM 1.4 °F -6.2 °F -2.2 °F 85% 30.11 in 10.0 mi West 3.5 mph - N/A   Overcast
8:16 AM 1.4 °F - -2.2 °F 85% 30.12 in 10.0 mi Calm Calm - N/A   Mostly Cloudy
8:36 AM 1.4 °F -8.3 °F -4.0 °F 78% 30.13 in 10.0 mi WSW 4.6 mph - N/A   Overcast
9:16 AM 1.4 °F - -5.8 °F 72% 30.13 in 10.0 mi Calm Calm - N/A   Mostly Cloudy
9:36 AM -0.4 °F - -7.6 °F 72% 30.13 in 9.0 mi Calm Calm - N/A   Mostly Cloudy
10:06 AM -0.4 °F - -7.6 °F 72% 30.14 in 10.0 mi Calm Calm - N/A   Scattered Clouds
10:36 AM -2.2 °F - -11.2 °F 66% 30.15 in 10.0 mi Calm Calm - N/A   Scattered Clouds
10:56 AM -2.2 °F - -5.8 °F 85% 30.15 in 10.0 mi Calm Calm - N/A   Scattered Clouds
11:16 AM -2.2 °F - -13.0 °F 60% 30.15 in 9.0 mi Calm Calm - N/A   Scattered Clouds
11:29 AM -2.2 °F - -4.0 °F 92% 30.16 in 8.0 mi Calm Calm - N/A Snow Light Snow Showers
11:36 AM -2.2 °F - -5.8 °F 85% 30.16 in 8.0 mi Calm Calm - N/A   Mostly Cloudy
11:56 AM -2.2 °F - -7.6 °F 78% 30.16 in 8.0 mi Calm Calm - N/A   Mostly Cloudy
12:16 PM -0.4 °F - -7.6 °F 72% 30.16 in 3.0 mi Calm Calm - N/A   Mostly Cloudy
12:44 PM -0.4 °F - -5.8 °F 78% 30.15 in 3.0 mi Calm Calm - N/A Snow Light Snow
12:56 PM -0.4 °F - -7.6 °F 72% 30.16 in 6.0 mi Calm Calm - N/A   Scattered Clouds
1:16 PM -2.2 °F - -7.6 °F 78% 30.16 in 10.0 mi Calm Calm - N/A   Partly Cloudy
1:36 PM -2.2 °F -10.4 °F -9.4 °F 71% 30.16 in 10.0 mi NE 3.5 mph - N/A   Clear
1:56 PM -4.0 °F - -9.4 °F 78% 30.16 in 10.0 mi Calm Calm - N/A   Clear
2:16 PM -5.8 °F - -16.6 °F 60% 30.16 in 10.0 mi Calm Calm - N/A   Partly Cloudy
2:56 PM -7.6 °F - -13.0 °F 77% 30.16 in 10.0 mi Calm Calm - N/A   Scattered Clouds
3:36 PM -9.4 °F -22.7 °F -14.8 °F 77% 30.16 in 10.0 mi NNE 5.8 mph - N/A   Scattered Clouds
3:56 PM -7.6 °F - -13.0 °F 77% 30.17 in 10.0 mi Calm Calm - N/A   Mostly Cloudy
4:16 PM -5.8 °F -18.4 °F -9.4 °F 84% 30.16 in 10.0 mi NE 5.8 mph - N/A   Mostly Cloudy
4:36 PM -4.0 °F -14.6 °F -11.2 °F 71% 30.16 in 10.0 mi NE 4.6 mph - N/A   Mostly Cloudy
4:43 PM -4.0 °F -14.6 °F -11.2 °F 71% 30.16 in 10.0 mi NNE 4.6 mph - N/A Snow Light Snow Showers
4:56 PM -4.0 °F -12.4 °F -9.4 °F 78% 30.16 in 10.0 mi NE 3.5 mph - N/A   Overcast
5:16 PM -2.2 °F - -9.4 °F 71% 30.16 in 10.0 mi Calm Calm - N/A   Overcast
5:36 PM -2.2 °F -10.4 °F -7.6 °F 78% 30.16 in 10.0 mi NNE 3.5 mph - N/A   Overcast
5:56 PM -2.2 °F -10.4 °F -7.6 °F 78% 30.16 in 10.0 mi NNE 3.5 mph - N/A   Overcast
6:16 PM -2.2 °F -12.5 °F -5.8 °F 85% 30.15 in 10.0 mi NE 4.6 mph - N/A   Overcast
6:36 PM -2.2 °F -10.4 °F -9.4 °F 71% 30.16 in 10.0 mi NE 3.5 mph - N/A   Overcast
6:40 PM -2.2 °F -10.4 °F -9.4 °F 71% 30.16 in 10.0 mi NNE 3.5 mph - N/A Snow Light Snow Showers
6:56 PM -4.0 °F -12.4 °F -9.4 °F 78% 30.16 in 10.0 mi NNE 3.5 mph - N/A   Mostly Cloudy
7:36 PM -7.6 °F -16.5 °F -14.8 °F 71% 30.16 in 10.0 mi NNE 3.5 mph - N/A   Mostly Cloudy
7:56 PM -7.6 °F -16.5 °F -14.8 °F 71% 30.16 in 10.0 mi NNE 3.5 mph - N/A   Mostly Cloudy
8:16 PM -7.6 °F -16.5 °F -14.8 °F 71% 30.15 in 10.0 mi NNE 3.5 mph - N/A   Mostly Cloudy
8:36 PM -7.6 °F - -14.8 °F 71% 30.15 in 10.0 mi Calm Calm - N/A   Scattered Clouds
8:56 PM -11.2 °F - -20.2 °F 64% 30.15 in 10.0 mi Calm Calm - N/A   Partly Cloudy
9:16 PM -11.2 °F - -20.2 °F 64% 30.15 in 10.0 mi Calm Calm - N/A   Partly Cloudy
9:36 PM -11.2 °F -20.6 °F -18.4 °F 70% 30.15 in 10.0 mi NNE 3.5 mph - N/A   Clear
9:56 PM -11.2 °F - -16.6 °F 77% 30.14 in 10.0 mi Calm Calm - N/A   Clear
10:16 PM -11.2 °F - -20.2 °F 64% 30.14 in 10.0 mi Calm Calm - N/A   Clear
10:36 PM -16.6 °F - -27.4 °F 58% 30.13 in 10.0 mi Calm Calm - N/A   Clear
10:56 PM -18.4 °F - -29.2 °F 58% 30.14 in 10.0 mi Calm Calm - N/A   Clear
11:16 PM -18.4 °F - -29.2 °F 58% 30.13 in 10.0 mi Calm Calm - N/A   Clear
11:36 PM -18.4 °F - -25.6 °F 70% 30.13 in 10.0 mi Calm Calm - N/A   Clear
11:56 PM -20.2 °F - -29.2 °F 63% 30.13 in 10.0 mi Calm Calm - N/A   Clear